Regional Weather Roundup
Issued by NWS

Home | Current Version | Previous Version | Graphics & Text | Print | Product List | Glossary On
Versions: 1 2 3 4 5 6 7 8 9 10 11 12 13 14 15 16 17 18 19 20 21 22 23 24 25 26 27 28 29 30 31 32 33 34 35 36 37 38 39 40 41 42 43 44 45 46 47 48 49 50
776
ASUS44 KMEG 260610
RWRTN
TENNESSEE HOURLY STATE WEATHER ROUNDUP
NATIONAL WEATHER SERVICE MEMPHIS TN
100 AM CDT MON JUN 26 2017

TNZ002-004-019-021-049-052-054-088>092-260700-
WEST TENNESSEE

CITY           SKY/WX    TMP DP  RH WIND       PRES   REMARKS
MEMPHIS INTL   CLEAR     67  58  72 S5        30.18F
NWS MEMPHIS      N/A     64 N/A N/A MISG        N/A
JACKSON        CLEAR     61  58  90 CALM      30.18F
SOMERVILLE     CLEAR     61  61 100 CALM      30.18S
COVINGTON      CLEAR     66  63  88 CALM      30.18S
UNION CITY     CLEAR     66  59  77 CALM      30.16F
BOLIVAR        CLEAR     59  57  94 CALM      30.18F
PARIS          CLEAR     63  57  82 SW3       30.17S
HUNTINGDON     CLEAR     63  59  88 CALM      30.17S
LEXINGTON      CLEAR     59  59 100 CALM      30.18S
SELMER         CLEAR     59  57  94 CALM      30.18F
SAVANNAH       CLEAR     59  57  94 CALM      30.18S
$$

TNZ008-025-027-028-033-062-065-066-260700-
NORTH MIDDLE TENNESSEE

CITY           SKY/WX    TMP DP  RH WIND       PRES   REMARKS
NASHVILLE      CLEAR     63  56  78 CALM      30.17F
PORTLAND       CLEAR     61  57  88 CALM      30.16S
CLARKSVILLE    CLEAR     61  56  83 CALM      30.17S
SMYRNA         CLEAR     60  57  89 CALM      30.18F
COOKEVILLE     CLEAR     54  54 100 CALM      30.18F
GALLATIN       CLEAR     61  57  88 CALM      30.19S
CROSSVILLE     CLEAR     53  51  93 CALM      30.22F
$$

TNZ061-075-076-078-094-096-097-260700-
SOUTH MIDDLE TENNESSEE

CITY           SKY/WX    TMP DP  RH WIND       PRES   REMARKS
FAYETTEVILLE   CLEAR     61  55  82 CALM      30.18F
TULLAHOMA      CLEAR     55  54  94 CALM      30.20F
WINCHESTER     CLEAR     55  54  94 CALM        N/A
MCMINNVILLE    CLEAR     57  57 100 CALM      30.19F
COLUMBIA       CLEAR     59  59 100 CALM      30.17S
SHELBYVILLE    CLEAR     57  55  94 SE3       30.18F
$$

TNZ017-018-042-046-047-260700-
NORTHEAST TENNESSEE

CITY           SKY/WX    TMP DP  RH WIND       PRES   REMARKS
TRI CITIES     CLEAR     55  52  89 CALM      30.19F
ELIZABETHTON   CLEAR     54  52  94 CALM      30.21S
$$

TNZ012-013-036-069-073-074-260700-
CENTRAL EAST TENNESSEE

CITY           SKY/WX    TMP DP  RH WIND       PRES   REMARKS
KNOXVILLE      CLEAR     62  54  74 CALM      30.18S
OAK RIDGE      CLEAR     58  53  84 CALM      30.20F
DOWNTOWN KNOXV CLEAR     57  57 100 CALM      30.18S
GATLINBURG     CLEAR     55  52  88 CALM      30.19S
MORRISTOWN     PTCLDY    59  54  82 CALM      30.18F
JACKSBORO      CLEAR     55  54  94 CALM      30.22F
$$

TNZ083-085-099-260700-
SOUTHEAST TENNESSEE

CITY           SKY/WX    TMP DP  RH WIND       PRES   REMARKS
CHATTANOOGA    CLEAR     61  56  83 S3        30.18F
$$

SKY/WX REPORTED AS FAIR MEANS FEW OR NO CLOUDS BELOW
12 THOUSAND FEET.





USA.gov is the U.S. government's official web portal to all federal, state and local government web resources and services.